SQ6CZH-3 Weather Reports


Display with metric or nautical units.
time (UTC)temp
F
wind
direction
speed
MPH
gust
MPH
rain 1hr
in
rain 24hr
in
rain mn
in
humidity
%
barometer
mb
20260508005933 52 270 1.0 4.0 0.00 0.01 0.00 67 1016.3
20260508004951 52 270 1.0 2.0 0.00 0.02 0.00 67 1016.4
20260508003929 52 270 1.0 2.0 0.00 0.03 0.00 67 1016.5
20260508002928 52 285 1.0 2.0 0.00 0.04 0.00 67 1016.5
20260508001925 52 270 1.0 2.0 0.00 0.05 0.00 67 1016.5
20260508000923 52 270 1.0 3.0 0.00 0.07 0.00 67 1016.4
20260507235921 52 270 1.0 3.0 0.00 0.10 0.00 67 1016.4
20260507234919 52 270 1.0 2.0 0.00 0.13 0.00 67 1016.4
20260507233919 52 270 1.0 2.0 0.00 0.15 0.00 67 1016.5
20260507232915 52 285 1.0 4.0 0.00 0.17 0.00 67 1016.4
20260507231913 52 270 1.0 3.0 0.00 0.19 0.00 67 1016.5
20260507230913 52 270 1.0 3.0 0.00 0.22 0.00 67 1016.5
20260507225909 52 270 1.0 2.0 0.00 0.25 0.00 67 1016.4
20260507224908 52 270 1.0 3.0 0.00 0.27 0.00 67 1016.5
20260507223906 53 270 1.0 3.0 0.00 0.29 0.00 66 1016.7
20260507222905 53 270 1.0 3.0 0.00 0.29 0.00 66 1016.7
20260507221901 53 270 1.0 2.0 0.00 0.32 0.00 66 1016.7
20260507220859 53 270 1.0 2.0 0.00 0.36 0.00 66 1016.5
20260507215919 53 270 1.0 2.0 0.00 0.37 0.37 66 1016.5
20260507214855 53 270 1.0 2.0 0.00 0.37 0.37 66 1016.5
20260507213853 53 270 1.0 2.0 0.00 0.38 0.37 66 1016.3
20260507212853 53 270 1.0 2.0 0.00 0.40 0.37 66 1016.3
20260507211848 53 251 1.0 2.0 0.00 0.43 0.37 66 1016.1
20260507210909 53 270 1.0 3.0 0.00 0.46 0.37 66 1016.4
20260507205845 53 270 1.0 3.0 0.00 0.48 0.37 66 1016.2
20260507204844 53 225 1.0 2.0 0.00 0.48 0.37 66 1016.0
20260507203842 53 270 1.0 3.0 0.00 0.49 0.37 66 1016.0
20260507202840 53 270 1.0 4.0 0.00 0.49 0.37 66 1015.9
20260507201843 53 270 1.0 3.0 0.00 0.49 0.37 66 1016.0
20260507200835 53 251 1.0 2.0 0.00 0.51 0.37 66 1015.5
20260507195915 53 270 1.0 4.0 0.00 0.55 0.37 66 1015.7
20260507194832 53 270 1.0 3.0 0.00 0.58 0.37 66 1015.5
20260507193829 53 270 1.0 3.0 0.00 0.63 0.37 66 1015.7
20260507192827 53 270 1.0 3.0 0.00 0.65 0.37 66 1015.2
20260507191846 53 270 1.0 3.0 0.00 0.66 0.37 66 1015.2
20260507190823 54 289 1.0 4.0 0.00 0.69 0.37 66 1015.1
20260507185824 54 270 1.0 2.0 0.00 0.74 0.37 66 1015.1
20260507184820 54 270 1.0 2.0 0.00 0.80 0.37 66 1014.8
20260507183817 54 270 1.0 2.0 0.00 0.84 0.37 66 1014.7
20260507182815 54 270 1.0 2.0 0.00 0.87 0.37 66 1014.7
20260507181813 54 240 1.0 3.0 0.00 0.90 0.37 66 1014.6
20260507180812 54 196 1.0 2.0 0.00 0.90 0.37 65 1014.3
20260507175809 54 210 1.0 2.0 0.00 0.91 0.37 65 1014.2
20260507174808 54 244 1.0 2.0 0.00 0.91 0.37 65 1014.3
20260507173805 54 270 1.0 2.0 0.00 0.91 0.37 65 1014.3
20260507172825 54 270 1.0 2.0 0.00 0.91 0.37 65 1014.0
20260507171822 54 270 1.0 2.0 0.00 0.91 0.37 65 1013.8
20260507170820 55 237 1.0 2.0 0.00 0.91 0.37 65 1013.9
20260507165819 55 221 1.0 3.0 0.00 0.91 0.37 65 1013.8
20260507164817 55 253 1.0 2.0 0.00 0.91 0.37 65 1013.5
20260507163753 55 270 1.0 2.0 0.00 0.91 0.37 65 1013.4
20260507162752 55 270 1.0 3.0 0.00 0.91 0.37 65 1013.2
20260507161749 55 270 1.0 3.0 0.00 0.91 0.37 65 1013.0
20260507160809 55 270 1.0 2.0 0.00 0.91 0.37 65 1013.1
20260507155806 55 255 1.0 4.0 0.00 0.91 0.37 65 1013.1
20260507154743 55 270 1.0 3.0 0.00 0.91 0.37 65 1012.9
20260507153803 55 255 1.0 4.0 0.00 0.91 0.37 65 1012.9
20260507152739 55 253 1.0 2.0 0.00 0.91 0.37 65 1013.0
20260507151737 55 270 1.0 2.0 0.00 0.91 0.37 65 1013.1
20260507150736 55 270 1.0 4.0 0.00 0.91 0.37 65 1012.9
20260507145734 55 270 1.0 4.0 0.00 0.91 0.37 65 1012.8
20260507144732 56 244 1.0 3.0 0.00 0.91 0.37 65 1012.6
20260507143729 56 203 1.0 4.0 0.00 0.91 0.37 65 1012.8
20260507142727 56 270 1.0 4.0 0.00 0.91 0.37 65 1012.8
20260507141725 56 270 1.0 2.0 0.00 0.91 0.37 65 1012.7
20260507140723 56 270 1.0 3.0 0.00 0.91 0.37 65 1012.7
20260507135743 56 234 1.0 2.0 0.00 0.91 0.37 65 1012.8
20260507134740 56 285 1.0 4.0 0.00 0.91 0.37 65 1012.6
20260507133717 56 270 1.0 2.0 0.00 0.91 0.37 65 1012.7
20260507132716 56 286 1.0 4.0 0.00 0.91 0.37 65 1012.7
20260507131734 56 253 1.0 2.0 0.00 0.91 0.37 65 1012.6
20260507130732 56 225 1.0 5.0 0.00 0.91 0.37 65 1012.5
20260507125709 56 225 1.0 3.0 0.00 0.91 0.37 65 1012.7
20260507124708 56 229 1.0 4.0 0.00 0.91 0.37 64 1012.4
20260507123705 56 220 1.0 4.0 0.00 0.91 0.37 65 1012.5
20260507122706 56 255 1.0 2.0 0.00 0.91 0.37 65 1012.1
20260507121700 56 270 1.0 3.0 0.00 0.91 0.37 64 1012.1
20260507120659 55 270 1.0 2.0 0.00 0.91 0.37 64 1012.2
20260507115657 55 270 1.0 3.0 0.00 0.91 0.37 64 1012.0
20260507114656 55 270 1.0 2.0 0.00 0.91 0.37 64 1012.0
20260507113653 55 270 1.0 2.0 0.00 0.91 0.37 64 1012.0
20260507112651 55 270 1.0 2.0 0.00 0.91 0.37 64 1012.0
20260507111709 55 270 1.0 3.0 0.00 0.91 0.37 64 1011.9
20260507110647 55 240 1.0 4.0 0.00 0.91 0.37 64 1011.6
20260507105645 55 270 1.0 4.0 0.00 0.91 0.37 64 1011.5
20260507104643 55 270 1.0 3.0 0.00 0.91 0.37 64 1011.7
20260507103642 55 270 1.0 2.0 0.00 0.91 0.37 64 1011.6
20260507102641 55 225 1.0 2.0 0.00 0.91 0.37 64 1011.4
20260507101657 55 270 1.0 3.0 0.00 0.91 0.37 64 1011.4
20260507100636 55 233 1.0 2.0 0.00 0.91 0.37 64 1011.2
20260507095653 55 270 1.0 2.0 0.00 0.91 0.37 64 1011.1
20260507094632 55 270 1.0 2.0 0.00 0.91 0.37 64 1011.1
20260507093630 55 315 1.0 2.0 0.00 0.91 0.37 64 1010.9
20260507092627 55 290 1.0 3.0 0.00 0.91 0.37 63 1010.8
20260507091625 55 295 2.0 4.0 0.00 0.91 0.37 63 1010.7
20260507090623 55 292 1.0 2.0 0.00 0.91 0.37 63 1010.6
20260507085622 55 270 1.0 4.0 0.00 0.91 0.37 63 1010.5
20260507084620 55 325 1.0 2.0 0.00 0.91 0.37 63 1010.5
20260507083618 55 270 1.0 2.0 0.00 0.91 0.37 63 1010.1
20260507082616 55 270 1.0 2.0 0.00 0.91 0.37 63 1010.2
20260507081613 55 270 1.0 2.0 0.00 0.91 0.37 63 1010.0
20260507080612 55 270 1.0 1.0 0.00 0.91 0.37 63 1009.9
20260507075659 55 307 1.0 1.0 0.00 0.91 0.37 63 1009.8
20260507074608 55 270 1.0 2.0 0.00 0.91 0.37 63 1009.8
20260507073605 55 315 1.0 2.0 0.00 0.91 0.37 63 1009.8
20260507072604 54 225 1.0 3.0 0.00 0.91 0.37 63 1009.8
20260507071643 54 270 1.0 1.0 0.00 0.91 0.37 63 1009.7
20260507070641 54 270 1.0 2.0 0.00 0.91 0.37 63 1009.4
20260507065559 54 191 1.0 2.0 0.00 0.91 0.37 63 1009.3
20260507064554 54 270 1.0 3.0 0.00 0.91 0.37 63 1009.2
20260507063553 54 186 1.0 4.0 0.00 0.91 0.37 63 1009.1
20260507062553 54 199 1.0 4.0 0.00 0.91 0.37 63 1009.0
20260507061550 54 178 2.0 5.0 0.00 0.91 0.37 62 1008.9
20260507060608 54 181 2.0 4.0 0.00 0.91 0.37 62 1008.8
20260507055547 54 182 2.0 6.0 0.00 0.91 0.37 62 1008.6
20260507054544 54 208 1.0 4.0 0.00 0.91 0.37 62 1008.5
20260507053541 55 187 2.0 5.0 0.00 0.91 0.36 62 1008.5
20260507052600 55 188 2.0 5.0 0.00 0.91 0.36 62 1008.4
20260507051537 55 219 2.0 4.0 0.00 0.91 0.36 62 1008.4
20260507050535 55 222 1.0 4.0 0.00 0.91 0.36 62 1008.3
20260507045533 55 225 1.0 2.0 0.00 0.91 0.36 62 1008.2
20260507044532 55 225 1.0 3.0 0.00 0.91 0.36 62 1008.1
20260507043530 56 210 2.0 3.0 0.00 0.92 0.36 62 1007.9
20260507042547 56 233 1.0 4.0 0.00 0.92 0.36 62 1007.8
20260507041526 56 235 1.0 2.0 0.00 0.92 0.36 62 1007.7
20260507040523 56 239 1.0 3.0 0.00 0.92 0.36 62 1007.7
20260507035523 56 214 2.0 4.0 0.00 0.92 0.36 62 1007.7
20260507034520 56 216 1.0 4.0 0.00 0.92 0.36 62 1007.6
20260507033517 57 239 1.0 4.0 0.00 0.92 0.36 61 1007.6
20260507032516 57 236 1.0 3.0 0.00 0.92 0.36 61 1007.6
20260507031515 57 223 2.0 3.0 0.00 0.92 0.36 61 1007.2
20260507030512 57 218 1.0 3.0 0.00 0.92 0.36 61 1007.1
20260507025529 57 208 2.0 4.0 0.00 0.92 0.36 61 1007.2
20260507024509 58 216 2.0 4.0 0.00 0.92 0.36 61 1007.1
20260507023526 58 209 1.0 3.0 0.00 0.92 0.36 61 1006.8
20260507022504 58 225 1.0 2.0 0.00 0.92 0.36 61 1006.9
20260507021020 58 184 1.0 4.0 0.00 0.92 0.36 61 1006.4
20260507015959 58 193 1.0 2.0 0.00 0.92 0.36 61 1006.7
20260507014957 58 225 1.0 2.0 0.01 0.91 0.36 61 1006.5
20260507013954 58 270 1.0 1.0 0.02 0.91 0.36 61 1006.6
20260507012954 58 270 1.0 1.0 0.03 0.91 0.36 61 1006.4
20260507011950 58 270 1.0 2.0 0.04 0.91 0.36 61 1006.4
20260507010948 58 215 1.0 2.0 0.06 0.91 0.36 61 1006.2